JST715 YMML-YSCB

Flight info

Callsign JST715
Flight time 0h 45m
Altitude 33000
Route ML H129 DOSEL Y59 ARRAN J42 CB
Aircraft A321/M-SDE3FGHIRWY/LB1

Departure

Time 2026-05-01 09:32
Airport Melbourne Airport (YMML)

Arrival

Time 2026-05-01 10:18
Airport Canberra Airport (YSCB)
Time Latitude Longitude Altitude Speed Heading
2026-05-01 09:14 -37.67140 144.84587 361 ft 0 kts 352°
2026-05-01 09:20 -37.67154 144.84590 387 ft 3 kts 346°
2026-05-01 09:20 -37.67193 144.84617 387 ft 3 kts 299°
2026-05-01 09:21 -37.67198 144.84643 387 ft 1 kts 262°
2026-05-01 09:23 -37.67198 144.84641 387 ft 2 kts 262°
2026-05-01 09:23 -37.67209 144.84538 385 ft 10 kts 263°
2026-05-01 09:24 -37.67209 144.84325 383 ft 15 kts 245°
2026-05-01 09:24 -37.67313 144.84286 380 ft 18 kts 168°
2026-05-01 09:24 -37.67516 144.84327 375 ft 18 kts 171°
2026-05-01 09:25 -37.67713 144.84368 370 ft 13 kts 173°
2026-05-01 09:25 -37.67849 144.84285 361 ft 5 kts 251°
2026-05-01 09:26 -37.67854 144.84256 363 ft 0 kts 256°
2026-05-01 09:27 -37.67855 144.84250 360 ft 2 kts 256°
2026-05-01 09:27 -37.67861 144.84214 360 ft 6 kts 258°
2026-05-01 09:28 -37.67870 144.84153 363 ft 4 kts 260°
2026-05-01 09:28 -37.67871 144.84147 361 ft 0 kts 260°
2026-05-01 09:28 -37.67871 144.84140 365 ft 0 kts 260°
2026-05-01 09:29 -37.67872 144.84138 365 ft 0 kts 260°
2026-05-01 09:30 -37.67873 144.84129 362 ft 1 kts 260°
2026-05-01 09:31 -37.67877 144.84098 358 ft 6 kts 261°
2026-05-01 09:31 -37.67884 144.84033 360 ft 9 kts 262°
2026-05-01 09:31 -37.67849 144.83965 361 ft 8 kts 345°
2026-05-01 09:32 -37.67790 144.83950 358 ft 13 kts 351°
2026-05-01 09:32 -37.66640 144.83741 403 ft 148 kts 354°
2026-05-01 09:32 -37.65599 144.83523 1044 ft 150 kts 353°
2026-05-01 09:33 -37.64566 144.83306 1787 ft 152 kts 355°
2026-05-01 09:33 -37.63511 144.83112 2573 ft 154 kts 358°
2026-05-01 09:33 -37.61350 144.82799 4166 ft 158 kts 356°
2026-05-01 09:34 -37.60214 144.82605 4757 ft 175 kts 352°
2026-05-01 09:34 -37.58920 144.82581 5200 ft 199 kts
2026-05-01 09:34 -37.56030 144.84119 6255 ft 249 kts 23°
2026-05-01 09:35 -37.54444 144.85082 7309 ft 256 kts 23°
2026-05-01 09:35 -37.51179 144.87085 9515 ft 267 kts 23°
2026-05-01 09:35 -37.49487 144.88118 10437 ft 277 kts 23°
2026-05-01 09:36 -37.47677 144.89215 10861 ft 301 kts 23°
2026-05-01 09:36 -37.45733 144.90399 11383 ft 317 kts 25°
2026-05-01 09:36 -37.43872 144.91959 12090 ft 327 kts 38°
2026-05-01 09:36 -37.42295 144.94068 12787 ft 335 kts 51°
2026-05-01 09:37 -37.40943 144.96488 13511 ft 340 kts 52°
2026-05-01 09:37 -37.38182 145.01403 14818 ft 348 kts 52°
2026-05-01 09:37 -37.36771 145.03893 15463 ft 352 kts 52°
2026-05-01 09:38 -37.33919 145.08917 16761 ft 359 kts 51°
2026-05-01 09:38 -37.32446 145.11514 17425 ft 363 kts 51°
2026-05-01 09:38 -37.30975 145.14112 18068 ft 367 kts 51°
2026-05-01 09:39 -37.27985 145.19386 19245 ft 374 kts 51°
2026-05-01 09:39 -37.26467 145.22059 19815 ft 377 kts 51°
2026-05-01 09:39 -37.24935 145.24750 20394 ft 380 kts 51°
2026-05-01 09:40 -37.23389 145.27462 20976 ft 383 kts 51°
2026-05-01 09:40 -37.20263 145.32950 22135 ft 390 kts 51°
2026-05-01 09:40 -37.18677 145.35723 22714 ft 393 kts 51°
2026-05-01 09:41 -37.17078 145.38520 23289 ft 396 kts 51°
2026-05-01 09:41 -37.13843 145.44173 24250 ft 403 kts 51°
2026-05-01 09:41 -37.12202 145.47037 24661 ft 406 kts 51°
2026-05-01 09:42 -37.10547 145.49925 25082 ft 409 kts 51°
2026-05-01 09:42 -37.08878 145.52832 25496 ft 412 kts 51°
2026-05-01 09:42 -37.05493 145.58706 26299 ft 419 kts 51°
2026-05-01 09:43 -37.02058 145.64671 27085 ft 425 kts 51°
2026-05-01 09:43 -37.00322 145.67686 27465 ft 428 kts 51°
2026-05-01 09:43 -36.98574 145.70722 27854 ft 432 kts 51°
2026-05-01 09:44 -36.95042 145.76847 28613 ft 437 kts 51°
2026-05-01 09:44 -36.93252 145.79939 28975 ft 441 kts 52°
2026-05-01 09:44 -36.91443 145.83055 29299 ft 445 kts 52°
2026-05-01 09:45 -36.89618 145.86195 29647 ft 448 kts 52°
2026-05-01 09:45 -36.85934 145.92540 30334 ft 454 kts 52°
2026-05-01 09:45 -36.84071 145.95741 30632 ft 457 kts 52°
2026-05-01 09:46 -36.82196 145.98961 30916 ft 460 kts 52°
2026-05-01 09:46 -36.80311 146.02196 31209 ft 462 kts 52°
2026-05-01 09:46 -36.78416 146.05449 31502 ft 465 kts 52°
2026-05-01 09:46 -36.76506 146.08727 31733 ft 469 kts 52°
2026-05-01 09:47 -36.74582 146.12018 32010 ft 472 kts 51°
2026-05-01 09:47 -36.72644 146.15328 32383 ft 472 kts 51°
2026-05-01 09:47 -36.70710 146.18626 32815 ft 471 kts 51°
2026-05-01 09:47 -36.68774 146.21927 33185 ft 472 kts 51°
2026-05-01 09:48 -36.64966 146.28429 33291 ft 453 kts 51°
2026-05-01 09:48 -36.61281 146.34712 33291 ft 449 kts 51°
2026-05-01 09:49 -36.57586 146.40986 33293 ft 449 kts 51°
2026-05-01 09:49 -36.53885 146.47253 33290 ft 449 kts 51°
2026-05-01 09:50 -36.50181 146.53507 33294 ft 450 kts 51°
2026-05-01 09:50 -36.46473 146.59766 33285 ft 450 kts 51°
2026-05-01 09:51 -36.42761 146.66023 33320 ft 450 kts 51°
2026-05-01 09:51 -36.39047 146.72273 33305 ft 450 kts 51°
2026-05-01 09:52 -36.35319 146.78517 33312 ft 450 kts 50°
2026-05-01 09:52 -36.31593 146.84750 33319 ft 450 kts 51°
2026-05-01 09:53 -36.27865 146.90994 33295 ft 451 kts 51°
2026-05-01 09:53 -36.24129 146.97246 33300 ft 452 kts 51°
2026-05-01 09:54 -36.20379 147.03494 33300 ft 452 kts 50°
2026-05-01 09:54 -36.17317 147.10290 33306 ft 456 kts 68°
2026-05-01 09:55 -36.15222 147.17731 33315 ft 459 kts 69°
2026-05-01 09:55 -36.13096 147.25185 33310 ft 460 kts 69°
2026-05-01 09:56 -36.10954 147.32638 33231 ft 461 kts 69°
2026-05-01 09:56 -36.09875 147.36388 32464 ft 465 kts 69°
2026-05-01 09:56 -36.08797 147.40143 31991 ft 462 kts 69°
2026-05-01 09:57 -36.07728 147.43872 31474 ft 459 kts 69°
2026-05-01 09:57 -36.06663 147.47577 30966 ft 456 kts 69°
2026-05-01 09:57 -36.05603 147.51257 30464 ft 453 kts 69°
2026-05-01 09:57 -36.04548 147.54912 29918 ft 450 kts 69°
2026-05-01 09:58 -36.03857 147.57308 29606 ft 446 kts 69°
2026-05-01 09:58 -36.02479 147.62098 28978 ft 439 kts 69°
2026-05-01 09:58 -36.01803 147.64445 28674 ft 436 kts 69°
2026-05-01 09:58 -36.00791 147.67951 28213 ft 431 kts 69°
2026-05-01 09:59 -35.99466 147.72528 27643 ft 424 kts 68°
2026-05-01 09:59 -35.98795 147.74839 27349 ft 421 kts 68°
2026-05-01 09:59 -35.97488 147.79316 26789 ft 416 kts 68°
2026-05-01 09:59 -35.96506 147.82659 26368 ft 413 kts 68°
2026-05-01 10:00 -35.95849 147.84899 26067 ft 411 kts 68°
2026-05-01 10:00 -35.94882 147.88202 25640 ft 408 kts 67°
2026-05-01 10:00 -35.93922 147.91486 25214 ft 406 kts 67°
2026-05-01 10:00 -35.92968 147.94755 24763 ft 404 kts 67°
2026-05-01 10:01 -35.92019 147.98013 24319 ft 403 kts 67°
2026-05-01 10:01 -35.91074 148.01260 23902 ft 400 kts 67°
2026-05-01 10:01 -35.90134 148.04474 23385 ft 399 kts 67°
2026-05-01 10:01 -35.89197 148.07663 22997 ft 393 kts 66°
2026-05-01 10:02 -35.88262 148.10831 22533 ft 390 kts 66°
2026-05-01 10:02 -35.87340 148.13965 21989 ft 389 kts 66°
2026-05-01 10:02 -35.86428 148.17074 21619 ft 383 kts 66°
2026-05-01 10:02 -35.85524 148.20153 21124 ft 380 kts 66°
2026-05-01 10:03 -35.84624 148.23203 20615 ft 378 kts 67°
2026-05-01 10:03 -35.83723 148.26223 20220 ft 373 kts 67°
2026-05-01 10:03 -35.82833 148.29211 19762 ft 370 kts 67°
2026-05-01 10:03 -35.81952 148.32175 19282 ft 368 kts 67°
2026-05-01 10:04 -35.81090 148.35073 18866 ft 364 kts 67°
2026-05-01 10:04 -35.80222 148.37986 18450 ft 360 kts 67°
2026-05-01 10:04 -35.79359 148.40870 17936 ft 357 kts 67°
2026-05-01 10:04 -35.78502 148.43723 17493 ft 353 kts 67°
2026-05-01 10:05 -35.77657 148.46543 17084 ft 349 kts 67°
2026-05-01 10:05 -35.76827 148.49329 16668 ft 344 kts 68°
2026-05-01 10:05 -35.76009 148.52083 16254 ft 341 kts 67°
2026-05-01 10:05 -35.75200 148.54806 15843 ft 337 kts 67°
2026-05-01 10:06 -35.74397 148.57502 15440 ft 334 kts 67°
2026-05-01 10:06 -35.73604 148.60173 15027 ft 331 kts 67°
2026-05-01 10:06 -35.72816 148.62824 14637 ft 329 kts 67°
2026-05-01 10:06 -35.72039 148.65456 14243 ft 326 kts 67°
2026-05-01 10:07 -35.71270 148.68063 13820 ft 323 kts 67°
2026-05-01 10:07 -35.70508 148.70650 13448 ft 319 kts 67°
2026-05-01 10:07 -35.69760 148.73177 13366 ft 312 kts 67°
2026-05-01 10:07 -35.69012 148.75684 13374 ft 312 kts 67°
2026-05-01 10:08 -35.67521 148.80683 12533 ft 312 kts 67°
2026-05-01 10:08 -35.66765 148.83213 11470 ft 314 kts 67°
2026-05-01 10:08 -35.66034 148.85663 11101 ft 299 kts 67°
2026-05-01 10:09 -35.65326 148.88035 10863 ft 293 kts 67°
2026-05-01 10:09 -35.64621 148.90392 10455 ft 293 kts 67°
2026-05-01 10:09 -35.63923 148.92730 10103 ft 291 kts 67°
2026-05-01 10:09 -35.63236 148.95035 9451 ft 285 kts 67°
2026-05-01 10:10 -35.62568 148.97288 8910 ft 272 kts 67°
2026-05-01 10:10 -35.61937 148.99406 8579 ft 256 kts 67°
2026-05-01 10:10 -35.60720 149.03451 7953 ft 253 kts 66°
2026-05-01 10:11 -35.60106 149.05479 7625 ft 254 kts 67°
2026-05-01 10:11 -35.59483 149.07508 7304 ft 253 kts 66°
2026-05-01 10:11 -35.58842 149.09514 7013 ft 251 kts 66°
2026-05-01 10:11 -35.58212 149.11461 6942 ft 240 kts 65°
2026-05-01 10:12 -35.57616 149.13319 6847 ft 228 kts 66°
2026-05-01 10:12 -35.57055 149.15078 6739 ft 216 kts 66°
2026-05-01 10:12 -35.55405 149.18011 6516 ft 209 kts 35°
2026-05-01 10:13 -35.54145 149.18861 6202 ft 205 kts 21°
2026-05-01 10:13 -35.52797 149.19358 5975 ft 202 kts
2026-05-01 10:13 -35.51397 149.19442 5738 ft 201 kts
2026-05-01 10:14 -35.48618 149.19446 5242 ft 196 kts
2026-05-01 10:14 -35.47287 149.19445 4977 ft 186 kts
2026-05-01 10:14 -35.46025 149.19445 4721 ft 177 kts
2026-05-01 10:14 -35.44824 149.19445 4489 ft 169 kts
2026-05-01 10:15 -35.43672 149.19445 4265 ft 162 kts
2026-05-01 10:15 -35.42580 149.19445 4085 ft 154 kts
2026-05-01 10:15 -35.41522 149.19445 3872 ft 150 kts
2026-05-01 10:15 -35.40516 149.19444 3681 ft 142 kts
2026-05-01 10:16 -35.39533 149.19445 3483 ft 142 kts
2026-05-01 10:16 -35.38547 149.19445 3291 ft 142 kts
2026-05-01 10:16 -35.36579 149.19445 2919 ft 141 kts
2026-05-01 10:17 -35.35598 149.19443 2738 ft 141 kts
2026-05-01 10:17 -35.33636 149.19428 2328 ft 140 kts
2026-05-01 10:17 -35.32668 149.19449 2144 ft 138 kts
2026-05-01 10:18 -35.30804 149.19443 1878 ft 112 kts
2026-05-01 10:18 -35.30311 149.19447 1880 ft 26 kts 360°
2026-05-01 10:18 -35.30175 149.19375 1880 ft 21 kts 294°
2026-05-01 10:19 -35.30157 149.19318 1879 ft 6 kts 290°
2026-05-01 10:19 -35.30184 149.19247 1880 ft 11 kts 208°
2026-05-01 10:19 -35.30270 149.19233 1880 ft 13 kts 180°
2026-05-01 10:20 -35.30486 149.19238 1880 ft 18 kts 180°
2026-05-01 10:20 -35.30592 149.19236 1876 ft 11 kts 181°
2026-05-01 10:20 -35.30644 149.19202 1876 ft 4 kts 255°
2026-05-01 10:20 -35.30642 149.19160 1880 ft 6 kts 257°
2026-05-01 10:21 -35.30661 149.19124 1877 ft 3 kts 231°
2026-05-01 10:21 -35.30679 149.19097 1880 ft 2 kts 231°
2026-05-01 10:21 -35.30682 149.19093 1880 ft 0 kts 231°